Weather History for KLOR - December, 2012

Change the Weather History Date:

Saturday, December 8, 2012

  Actual Average (KDHN) Record (KDHN)
Temperature  
Mean Temperature 64 °F 53 °F  
Max Temperature 73 °F 64 °F 80 °F (1951)
Min Temperature 55 °F 41 °F 24 °F (2006)
Degree Days  
Heating Degree Days 1 13  
Month to date heating degree days 95  
Since 1 July heating degree days 372  
Growing Degree Days 14 (Base 50)    
Moisture  
Dew Point 59 °F    
Average Humidity 88    
Maximum Humidity 100    
Minimum Humidity 65    
Precipitation  
Precipitation 0.00 in 0.17 in 0.82 in (1948)
Month to date precipitation 1.49  
Year to date precipitation 51.07  
Sea Level Pressure  
Sea Level Pressure 30.00 in    
Wind  
Wind Speed 1 mph (South)    
Max Wind Speed 7 mph    
Max Gust Speed -    
Visibility 6 miles    
Events Fog    
T = Trace of Precipitation, MM = Missing Value Source: NWS Daily Summary

Daily Weather History Graph

Daily Weather History Graph

Search for Another Location

Airport or City:

Trip Planner

Search our weather history database for the weather conditions in past years. The results will help you decide how hot, cold, wet, or windy it might be!

Date:

Astronomy

Dec. 08, 2012 Rise Set
Actual Time 6:30 AM CST 4:40 PM CST
Civil Twilight 6:03 AM CST 5:06 PM CST
Nautical Twilight 5:33 AM CST 5:37 PM CST
Astronomical Twilight 5:03 AM CST 6:06 PM CST
Moon 1:10 AM CST (12/8) 12:55 PM CST (12/8)
Length of Visible Light 11h 03m
Length of Day
10h 10m
Waning Crescent, 28% of the Moon is Illuminated
Dec 8
Waning Crescent
Dec 13
New
Dec 19
First Quarter
Dec 28
Full
Jan 4
Last Quarter

Hourly Weather History & Observations

Time (CST) Temp. Dew Point Humidity Pressure Visibility Wind Dir Wind Speed Gust Speed Precip Events Conditions
12:53 AM 57.0 °F 55.0 °F 93% 29.99 in 6.0 mi Calm Calm - N/A   Overcast
1:53 AM 55.9 °F 54.0 °F 93% 29.98 in 4.0 mi Calm Calm - N/A   Partly Cloudy
2:53 AM 55.9 °F 54.0 °F 93% 29.97 in 3.0 mi Calm Calm - N/A   Mostly Cloudy
3:53 AM 55.9 °F 54.0 °F 93% 29.97 in 3.0 mi Calm Calm - N/A   Mostly Cloudy
4:09 AM 55.4 °F 53.6 °F 94% 29.97 in 2.5 mi Calm Calm - N/A   Mostly Cloudy
4:27 AM 55.4 °F 53.6 °F 94% 29.98 in 3.0 mi Calm Calm - N/A   Mostly Cloudy
4:53 AM 55.0 °F 54.0 °F 96% 29.98 in 2.5 mi Calm Calm - N/A   Overcast
5:00 AM 55.4 °F 53.6 °F 94% 29.99 in 3.0 mi Calm Calm - N/A   Overcast
5:53 AM 55.9 °F 54.0 °F 93% 29.99 in 3.0 mi Calm Calm - N/A   Overcast
6:00 AM 55.4 °F 53.6 °F 94% 30.00 in 3.0 mi Calm Calm - N/A   Overcast
6:08 AM 55.4 °F 53.6 °F 94% 30.00 in 4.0 mi Calm Calm - N/A   Overcast
6:43 AM 57.2 °F 55.4 °F 94% 30.01 in 2.5 mi Calm Calm - N/A   Overcast
6:53 AM 57.0 °F 55.0 °F 93% 30.01 in 2.5 mi Calm Calm - N/A   Overcast
7:07 AM 57.2 °F 55.4 °F 94% 30.03 in 1.0 mi Calm Calm - N/A   Overcast
7:16 AM 57.2 °F 55.4 °F 94% 30.02 in 0.5 mi Calm Calm - N/A Fog Fog
7:53 AM 57.9 °F 57.0 °F 97% 30.03 in 1.0 mi Calm Calm - N/A   Overcast
8:09 AM 59.0 °F 57.2 °F 94% 30.04 in 2.5 mi Calm Calm - N/A   Overcast
8:19 AM 59.0 °F 57.2 °F 94% 30.04 in 3.0 mi Calm Calm - N/A   Overcast
8:53 AM 61.0 °F 57.9 °F 90% 30.04 in 6.0 mi South 5.8 mph - N/A   Overcast
9:14 AM 60.8 °F 59.0 °F 94% 30.04 in 2.0 mi SSE 6.9 mph - N/A   Overcast
9:28 AM 60.8 °F 59.0 °F 94% 30.04 in 3.0 mi SSE 3.5 mph - N/A   Overcast
9:53 AM 63.0 °F 59.0 °F 87% 30.04 in 5.0 mi South 4.6 mph - N/A   Overcast
10:23 AM 64.4 °F 60.8 °F 88% 30.03 in 7.0 mi Calm Calm - N/A   Overcast
10:53 AM 66.0 °F 61.0 °F 84% 30.01 in 9.0 mi SSE 4.6 mph - N/A   Overcast
11:18 AM 69.8 °F 60.8 °F 73% 30.00 in 10.0 mi Calm Calm - N/A   Overcast
11:32 AM 69.8 °F 60.8 °F 73% 30.00 in 10.0 mi Calm Calm - N/A   Overcast
11:53 AM 70.0 °F 62.1 °F 76% 29.99 in 10.0 mi SSW 3.5 mph - N/A   Overcast
12:06 PM 69.8 °F 62.6 °F 78% 29.98 in 10.0 mi South 5.8 mph - N/A   Overcast
12:53 PM 71.1 °F 62.1 °F 73% 29.96 in 10.0 mi SSW 4.6 mph - N/A   Overcast
1:00 PM 69.8 °F 62.6 °F 78% 29.97 in 10.0 mi Variable 4.6 mph - N/A   Overcast
1:42 PM 71.6 °F 62.6 °F 73% 29.96 in 10.0 mi SSW 4.6 mph - N/A   Overcast
1:53 PM 73.0 °F 62.1 °F 68% 29.95 in 10.0 mi South 4.6 mph - N/A   Overcast
2:53 PM 73.0 °F 61.0 °F 66% 29.95 in 10.0 mi South 4.6 mph - N/A   Overcast
3:01 PM 73.4 °F 60.8 °F 65% 29.95 in 10.0 mi SSW 4.6 mph - N/A   Overcast
3:12 PM 73.4 °F 60.8 °F 65% 29.95 in 10.0 mi South 4.6 mph - N/A   Overcast
3:53 PM 72.0 °F 62.1 °F 71% 29.95 in 10.0 mi South 5.8 mph - N/A   Overcast
4:53 PM 68.0 °F 64.0 °F 87% 29.96 in 10.0 mi Calm Calm - N/A   Overcast
5:53 PM 66.9 °F 64.0 °F 90% 29.99 in 10.0 mi Calm Calm - N/A   Overcast
6:53 PM 64.9 °F 62.1 °F 90% 30.00 in 10.0 mi Calm Calm - N/A   Clear
7:53 PM 63.0 °F 62.1 °F 97% 30.01 in 8.0 mi Calm Calm - N/A   Mostly Cloudy
8:38 PM 62.6 °F 60.8 °F 94% 30.02 in 9.0 mi Calm Calm - N/A   Overcast
8:53 PM 63.0 °F 61.0 °F 93% 30.02 in 10.0 mi Calm Calm - N/A   Overcast
9:27 PM 62.6 °F 60.8 °F 94% 30.03 in 9.0 mi Calm Calm - N/A   Overcast
9:53 PM 64.0 °F 62.1 °F 93% 30.03 in 6.0 mi South 3.5 mph - N/A   Overcast
10:12 PM 64.4 °F 62.6 °F 94% 30.03 in 1.8 mi South 3.5 mph - N/A   Overcast
10:53 PM 64.9 °F 63.0 °F 93% 30.03 in 1.8 mi SSW 4.6 mph - N/A   Overcast
11:05 PM 64.4 °F 62.6 °F 94% 30.03 in 2.0 mi South 3.5 mph - N/A   Overcast
11:21 PM 64.4 °F 62.6 °F 94% 30.03 in 1.5 mi South 5.8 mph - N/A   Overcast
11:41 PM 64.4 °F 64.4 °F 100% 30.03 in 2.5 mi South 5.8 mph - N/A   Overcast
11:53 PM 64.9 °F 63.0 °F 93% 30.02 in 2.5 mi South 5.8 mph - N/A   Overcast